Location: Blancey
(47.3055°N, 4.4663°E)
Time: 08:07:25
(UTC+00:00)

Daily predictions for brighter satellites

Satellite Brightness Start Highest point End
(mag) Time Altitude Azimuth Time Altitude Azimuth Time Altitude Azimuth
IRIDIUM 106 4.5 18:43:36 10° N 18:48:45 55° E 18:53:51 10° SSE
Cosmos 1758 Rocket 3.7 18:45:11 10° N 18:49:26 52° ENE 18:53:38 10° SSE
STARLINK-1208 4.2 18:47:21 10° NW 18:50:13 31° N 18:53:05 10° ENE
SPOT 3 Rocket 4.4 18:45:54 10° SE 18:50:29 32° ENE 18:55:03 10° N
STARLINK-1229 4.2 18:47:50 10° NW 18:50:41 31° N 18:53:32 10° ENE
Cosmos 1461 4.1 18:46:50 10° NNW 18:50:57 33° NE 18:55:09 10° ESE
Cosmos 1603 3.7 18:45:25 10° SSW 18:51:02 76° ESE 18:56:39 10° NNE
STARLINK-1271 4.2 18:48:17 10° NW 18:51:08 31° N 18:54:00 10° ENE
STARLINK-1270 4.2 18:48:45 10° NW 18:51:36 31° N 18:54:27 10° ENE
STARLINK-1154 4.2 18:49:11 10° NW 18:52:03 31° N 18:54:54 10° ENE
STARLINK-1197 4.2 18:50:06 10° NW 18:52:57 32° N 18:55:49 10° ENE
STARLINK-1189 4.2 18:50:33 10° NW 18:53:25 32° NNE 18:56:16 10° ENE
STARLINK-1198 4.2 18:51:00 10° NW 18:53:51 32° NNE 18:56:43 10° ENE
STARLINK-1188 4.2 18:51:27 10° NW 18:54:19 32° NNE 18:57:11 10° ENE
STARLINK-1235 4.0 18:52:05 10° NW 18:55:02 35° NNE 18:57:59 10° E
STARLINK-1187 4.1 18:52:31 10° NW 18:55:28 34° NNE 18:58:23 10° E
STARLINK-1199 4.2 18:53:23 10° NW 18:56:16 32° NNE 18:59:10 10° ENE
STARLINK-1191 4.2 18:53:51 10° NW 18:56:45 32° NNE 18:59:38 10° E
SJ-6B 3.4 18:52:57 10° SE 18:56:51 43° ENE 19:00:47 10° N
STARLINK-1210 4.2 18:54:17 10° NW 18:57:11 33° NNE 19:00:05 10° E
Cosmos 1953 Rocket 4.2 18:53:06 10° N 18:57:17 37° ENE 19:01:29 10° SE
STARLINK-1221 4.2 18:54:45 10° NW 18:57:39 33° NNE 19:00:33 10° E
STARLINK-1219 4.2 18:55:11 10° NW 18:58:05 33° NNE 19:01:00 10° E
STARLINK-60 3.8 18:55:15 10° SSW 18:58:13 32° SE 19:01:12 10° ENE
STARLINK-1222 4.2 18:55:39 10° NW 18:58:33 33° NNE 19:01:27 10° E
Cosmos 1606 Rocket 4.0 18:54:44 10° SSE 18:58:53 41° E 19:03:05 10° NNE
ATLAS 5 CENTAUR R/B 2.6 18:55:41 10° SSE 18:58:53 22° ESE 19:02:21 10° ENE
Cosmos 2074 Rocket 4.1 18:52:37 10° N 18:58:54 66° E 19:05:09 10° SSE
STARLINK-1211 4.2 18:56:06 10° NW 18:59:00 33° NNE 19:01:54 10° E
STARLINK-1214 4.1 18:56:33 10° NW 18:59:27 33° NNE 19:02:21 10° E
STARLINK-1245 4.1 18:57:03 10° NW 18:59:56 33° NNE 19:02:48 10° E
STARLINK-1238 4.1 18:57:27 10° NW 19:00:21 33° NNE 19:03:16 10° E
STARLINK-1205 4.1 18:58:24 10° NW 19:01:17 33° NNE 19:04:11 10° E
ADEOS Rocket 3.8 18:55:22 10° N 19:01:39 57° WNW 19:07:20 10° SW
STARLINK-1204 4.1 18:58:50 10° NW 19:01:44 33° NNE 19:04:37 10° E
Meteor 1-16 Rocket 4.2 18:58:04 10° S 19:03:21 58° E 19:08:50 10° NNE
Cosmos 1818 3.6 18:58:20 10° SSW 19:03:42 69° ESE 19:09:08 10° NE
ISS -0.9 19:07:30 10° WSW 19:08:50 12° SW 19:10:09 10° SSW
Abrixas rocket 2.1 19:05:53 10° W 19:08:50 70° N 19:11:30 12° E
Cosmos 1943 Rocket 3.7 19:06:16 10° NW 19:11:21 37° WSW 19:16:26 10° S
NOSS 3-4 (A) 3.9 19:06:08 10° NW 19:13:03 73° NE 19:20:34 11° SE
NOSS 3-4 (C) 3.9 19:06:14 10° NW 19:13:10 72° NE 19:20:38 11° SE
FALCON 9 DEB 4.4 19:15:27 10° S 19:18:16 23° SE 19:20:15 14° E
Cosmos 1300 4.3 19:17:23 14° ESE 19:18:49 17° E 19:21:20 10° NE
SL-4 R/B 1.4 19:15:29 10° WSW 19:18:52 76° SSE 19:22:19 10° ENE
Cosmos 2369 Rocket 3.4 19:15:40 10° NW 19:21:00 42° WSW 19:26:16 10° S
NOSS 3-3 (A) 4.4 19:16:26 10° SW 19:22:20 67° NW 19:29:03 10° NE
NOSS 3-3 (C) 4.4 19:16:32 10° SW 19:22:25 67° NW 19:29:09 10° NE
MOS 1 4.4 19:16:47 10° SSE 19:22:27 87° WSW 19:28:09 10° NNW
MOS 1 Rocket 4.2 19:18:01 10° NNE 19:22:57 35° E 19:27:54 10° SSE
STARLINK-1201 3.9 19:19:56 10° NW 19:23:04 40° NNE 19:25:27 15° E
Cosmos 1340 Rocket 3.4 19:19:31 10° SSE 19:23:14 36° E 19:26:56 10° NNE
CZ-2C R/B 4.0 19:20:52 10° NNE 19:25:26 48° E 19:29:54 10° S
Cosmos 1703 3.2 19:21:40 10° N 19:25:39 79° E 19:29:36 10° SSE
STARLINK-67 2.4 19:23:13 10° WNW 19:25:47 67° NNE 19:27:10 23° ESE
H-2A R/B 2.3 19:21:01 10° S 19:26:12 70° WSW 19:31:17 10° NNW
Cosmos 1328 3.7 19:22:16 10° N 19:26:18 77° E 19:30:18 10° SSE
CZ-2C R/B 3.1 19:24:06 10° S 19:28:58 72° WSW 19:33:44 10° NNW
Cosmos 1437 4.1 19:28:47 10° NNW 19:31:38 38° W 19:34:27 10° SSW
STARLINK-52 3.8 19:33:57 10° SSW 19:36:46 28° SE 19:37:28 26° ESE
Cosmos 1908 3.1 19:33:01 10° S 19:36:52 82° E 19:40:47 10° N
SL-08 RB Rocket 3.7 19:32:24 10° SSE 19:36:58 87° WSW 19:41:37 10° NNW
Resurs 1-3 3.6 19:37:17 14° SSE 19:41:01 65° ENE 19:45:23 10° N
USA 234 3.9 19:37:09 10° ENE 19:42:45 30° SE 19:48:19 10° S
SeaSat 1 4.1 19:39:34 10° NNE 19:44:05 36° NW 19:48:34 10° WSW
ATLAS 2AS CENTAUR R/B 3.0 19:37:48 10° NW 19:45:25 77° SW 19:51:22 15° SSE
STARLINK-1228 2.8 19:43:09 10° WNW 19:46:05 69° NNE 19:47:06 36° E
STARLINK-1236 4.4 19:42:09 10° WNW 19:46:08 43° NNE 19:48:47 19° ENE
Cosmos 1943 4.0 19:41:31 10° SW 19:47:04 54° WNW 19:52:41 10° NNE
Ariane Rocket 4.3 19:42:30 10° SSW 19:47:14 39° W 19:51:59 10° NNW
CZ-4C R/B 4.3 19:45:04 10° NNW 19:50:23 25° NNE 19:56:23 10° ENE
Cosmos 1140 Rocket 3.4 19:46:33 10° S 19:51:40 64° ESE 19:56:48 10° NNE
Cosmos 1726 4.1 19:48:43 10° SW 19:52:06 32° WNW 19:55:29 10° N
Cosmos 2341 Rocket 4.1 19:48:38 10° N 19:55:00 63° ENE 19:59:56 17° SSE
STARLINK-1269 4.3 19:52:07 10° WNW 19:56:08 46° NNE 19:58:20 23° ENE
Cosmos 1190 Rocket 3.9 19:52:48 10° SSW 19:58:06 82° ESE 20:03:25 10° NNE
Cosmos 2058 Rocket 3.0 19:54:16 10° S 19:58:47 88° E 20:03:19 10° N
Meteor 1-11 4.5 19:53:03 10° NNW 19:58:49 74° W 20:04:27 10° S
Spot 2 Rocket 4.1 19:56:54 26° ESE 19:59:08 40° ENE 20:03:54 10° N
DMSP B5D2-2 4.0 19:55:32 10° NNE 20:00:47 77° ESE 20:06:02 10° S
MetOp-A 4.3 19:55:43 10° S 20:01:04 75° WSW 20:06:27 10° NNW
STARLINK-1200 4.3 19:57:06 10° WNW 20:01:08 48° NNE 20:03:07 26° ENE
CZ-2C R/B 2.5 19:56:17 10° NNE 20:01:27 67° ESE 20:06:37 10° S
Cosmos 1697 Rocket 4.4 19:57:22 10° N 20:01:28 20° NE 20:04:03 15° ENE
COSMOS 2455 2.8 19:55:32 10° NNW 20:01:36 80° NE 20:05:12 26° SE
Cosmos 614 Rocket 4.4 19:58:55 10° SSW 20:04:06 65° WNW 20:09:19 10° NNE
STARLINK-1192 4.2 20:02:05 10° WNW 20:06:08 50° NNE 20:07:55 29° ENE
Cosmos 1726 Rocket 4.5 20:02:30 10° SSW 20:06:47 50° WNW 20:11:08 10° N
IGS 5A 4.4 20:06:53 28° E 20:07:24 29° ENE 20:11:01 10° N
ARGOS 4.5 20:02:37 10° SSW 20:07:37 38° W 20:12:39 10° NNW
Iridium 2 4.2 20:07:50 38° E 20:07:55 38° E 20:11:29 10° NNE
Cosmos 2218 Rocket 4.2 20:03:16 10° N 20:09:19 50° ENE 20:12:18 29° SE
Resurs 01 Rocket 1.5 20:08:30 26° SSE 20:11:00 89° W 20:15:26 10° NNW
STARLINK-1244 4.1 20:07:04 10° WNW 20:11:08 52° NNE 20:12:41 32° ENE
ERBS 3.4 20:08:35 10° NW 20:11:43 34° NNE 20:12:22 31° NE
BREEZE-M DEB (TANK) 1.8 20:11:14 10° W 20:14:55 57° NNW 20:15:10 53° NNE
ATLAS CENTAUR R/B 3.5 20:13:22 10° N 20:15:26 14° NNE 20:16:45 12° NE
STARLINK-1138 4.1 20:12:03 10° WNW 20:16:08 54° NNE 20:17:28 36° ENE
Cosmos 921 Rocket 3.3 20:15:40 10° NNW 20:19:48 61° WSW 20:21:45 29° S
STARLINK-1234 2.9 20:16:52 10° WNW 20:19:47 67° SW 20:19:47 67° SW
STARLINK-1233 2.8 20:16:49 10° WNW 20:19:56 87° WNW 20:19:56 87° WNW
STARLINK-1212 2.8 20:17:17 10° WNW 20:20:21 85° WNW 20:20:21 85° WNW
STARLINK-1105 2.8 20:17:43 10° WNW 20:20:48 85° WNW 20:20:48 85° WNW
STARLINK-1209 3.0 20:18:01 10° WNW 20:20:51 61° WSW 20:20:51 61° WSW
STARLINK-1143 4.0 20:17:00 10° WNW 20:21:06 57° NNE 20:22:15 41° ENE
STARLINK-1206 2.8 20:18:13 10° WNW 20:21:13 82° WNW 20:21:13 82° WNW
STARLINK-1247 2.8 20:18:39 10° WNW 20:21:39 80° WNW 20:21:39 80° WNW
STARLINK-1227 2.8 20:19:04 10° WNW 20:22:06 81° W 20:22:06 81° W
STARLINK-1218 2.9 20:19:34 10° WNW 20:22:31 78° W 20:22:31 78° W
STARLINK-1226 2.9 20:20:01 10° WNW 20:22:58 77° W 20:22:58 77° W
STARLINK-1254 2.9 20:20:26 10° WNW 20:23:24 77° W 20:23:24 77° W
USA 245 4.4 20:21:28 34° SE 20:23:58 64° ENE 20:30:18 10° N
STARLINK-1215 2.9 20:20:55 10° WNW 20:23:49 74° W 20:23:49 74° W
STARLINK-1231 3.0 20:21:22 10° WNW 20:24:15 73° W 20:24:15 73° W
Cosmos 2181 Rocket 3.9 20:20:34 18° S 20:25:21 69° E 20:31:30 10° NNE
STARLINK-1232 3.0 20:22:17 10° WNW 20:25:08 71° W 20:25:08 71° W
SL-8 Rocket 3.9 20:19:26 10° N 20:25:48 77° E 20:29:12 29° SSE
Cosmos 407 Rocket 4.3 20:20:50 10° SW 20:25:50 51° WNW 20:30:52 10° NNE
STARLINK-1217 3.0 20:22:43 10° WNW 20:25:33 70° W 20:25:33 70° W
STARLINK-1241 3.9 20:22:02 10° WNW 20:26:08 60° NNE 20:27:04 46° ENE
STARLINK-1208 3.0 20:23:08 10° WNW 20:26:00 70° W 20:26:00 70° W
BREEZE-M DEB (TANK) 3.7 20:22:00 10° WNW 20:26:24 40° SW 20:26:31 40° SSW
STARLINK-1229 3.1 20:23:36 10° WNW 20:26:25 67° W 20:26:25 67° W
Cosmos 676 Rocket 3.9 20:21:34 10° SSW 20:26:52 87° ESE 20:32:09 10° NNE
STARLINK-1271 3.1 20:24:04 10° WNW 20:26:52 67° W 20:26:52 67° W
STARLINK-1270 3.1 20:24:31 10° WNW 20:27:17 65° W 20:27:17 65° W
Cosmos 1455 4.5 20:30:12 14° NE 20:30:12 14° NE 20:30:56 10° NE
STARLINK-1154 3.2 20:24:58 10° WNW 20:27:43 64° W 20:27:43 64° W
ERS-1 Rocket 3.6 20:27:20 35° E 20:28:08 37° ENE 20:32:44 10° N
Cosmos 864 Rocket 4.5 20:22:08 10° N 20:28:19 63° ENE 20:30:45 37° SE
STARLINK-1197 3.2 20:25:53 10° WNW 20:28:35 62° W 20:28:35 62° W
Cosmos 1656 4.3 20:24:00 10° NNW 20:29:25 42° NE 20:30:57 35° E
STARLINK-1189 3.2 20:26:19 10° WNW 20:29:01 61° W 20:29:01 61° W
STARLINK-1198 3.3 20:26:46 10° WNW 20:29:27 60° W 20:29:27 60° W
Cosmos 1812 Rocket 3.6 20:29:45 54° ESE 20:29:54 55° E 20:34:09 10° NNE
Cosmos 1461 4.1 20:25:51 10° NW 20:30:09 41° WSW 20:32:00 28° SSW
STARLINK-1188 3.3 20:27:13 10° WNW 20:29:53 59° W 20:29:53 59° W
Cosmos 1980 Rocket 3.9 20:26:46 10° N 20:30:39 19° NE 20:32:34 16° ENE
STARLINK-1235 3.5 20:27:53 10° WNW 20:30:32 51° WSW 20:30:32 51° WSW
STARLINK-1239 3.8 20:26:58 10° WNW 20:31:05 63° NNE 20:31:48 52° ENE
STARLINK-1187 3.4 20:28:18 10° WNW 20:30:59 55° W 20:30:59 55° W
STARLINK-29 3.7 20:28:59 10° WSW 20:31:20 46° WSW 20:31:20 46° WSW
STARLINK-1199 3.4 20:29:09 10° WNW 20:31:48 57° W 20:31:48 57° W
Cosmos 1892 3.2 20:28:37 10° N 20:32:00 45° ENE 20:32:00 45° ENE
STARLINK-1191 3.4 20:29:38 10° WNW 20:32:15 56° W 20:32:15 56° W
STARLINK-1210 3.5 20:30:04 10° WNW 20:32:40 55° W 20:32:40 55° W
STARLINK-1221 3.5 20:30:32 10° WNW 20:33:07 54° W 20:33:07 54° W
SPOT 5 3.6 20:34:13 31° ENE 20:34:13 31° ENE 20:37:51 10° N
STARLINK-1219 3.5 20:30:58 10° WNW 20:33:32 53° W 20:33:32 53° W
STARLINK-60 3.8 20:31:18 10° W 20:34:30 50° NNW 20:34:55 46° N
STARLINK-1222 3.6 20:31:25 10° WNW 20:33:58 52° W 20:33:58 52° W
STARLINK-1211 3.6 20:31:53 10° WNW 20:34:24 51° W 20:34:24 51° W
STARLINK-1214 3.6 20:32:19 10° WNW 20:34:50 50° W 20:34:50 50° W
STARLINK-1245 3.7 20:32:49 10° WNW 20:35:16 48° W 20:35:16 48° W
STARLINK-1240 3.7 20:31:58 10° WNW 20:36:06 66° NNE 20:36:36 59° ENE
STARLINK-1238 3.7 20:33:13 10° WNW 20:35:43 49° W 20:35:43 49° W
STARLINK-1205 3.8 20:34:10 10° WNW 20:36:34 46° W 20:36:34 46° W
STARLINK-1204 3.8 20:34:37 10° WNW 20:36:59 45° W 20:36:59 45° W
Cosmos 220 Rocket 3.8 20:33:23 10° NNW 20:37:44 81° ENE 20:38:14 68° SE
Cosmos 2366 rocket 3.9 20:32:30 10° N 20:38:40 77° E 20:41:05 39° SSE
STARLINK-1216 3.6 20:36:58 10° WNW 20:41:06 70° NNE 20:41:24 66° ENE
Cosmos 1825 4.0 20:39:12 10° NNE 20:41:04 20° NE 20:41:04 20° NE
Terra 2.9 20:42:27 30° ENE 20:42:27 30° ENE 20:46:31 10° N
ATLAS 5 CENTAUR R/B 2.4 20:38:56 10° WSW 20:43:04 51° NW 20:47:45 10° NNE
Abrixas rocket 3.9 20:41:32 10° W 20:43:05 26° W 20:43:05 26° W
Cosmos 1959 Rocket 4.4 20:38:46 10° N 20:45:08 87° E 20:47:43 39° S
STARLINK-1237 3.6 20:41:55 10° WNW 20:46:04 74° NNE 20:46:09 73° NE
Cosmos 1954 Rocket 4.4 20:44:47 10° SSW 20:49:59 64° WNW 20:55:11 10° NNE
Cosmos 2151 3.9 20:46:44 10° N 20:49:51 35° NE 20:49:51 35° NE
Cosmos 2058 2.8 20:46:40 10° N 20:50:47 85° W 20:50:47 85° W
STARLINK-1202 3.6 20:46:54 10° WNW 20:50:57 77° N 20:50:57 77° N
Cosmos 192 4.2 20:46:26 10° NNW 20:51:26 87° WSW 20:52:10 65° SSE
SPOT 1/Viking Rocket 3.5 20:52:37 61° SE 20:53:29 78° ENE 20:58:44 10° NNW
RESURS DK-1 3.3 20:49:51 10° NNW 20:53:17 37° NE 20:53:17 37° NE
Cosmos 1300 4.0 20:52:16 22° SW 20:54:10 38° WNW 20:57:46 10° N
Cosmos 1741 Rocket 4.0 20:54:59 59° E 20:54:59 59° E 21:00:02 10° NNE
SL-4 R/B 2.8 20:55:21 10° W 20:58:16 40° NNW 20:58:16 40° NNW
Cosmos 1076 Rocket 3.6 20:54:34 10° NNW 20:58:51 69° W 20:59:02 67° WSW
In-Cosmos 22 Rocket 4.5 20:54:33 10° NNW 21:00:22 69° W 21:02:23 41° SSW
Cosmos 2082 Rocket 4.4 21:04:00 11° ENE 21:04:00 11° ENE 21:04:25 10° NE
Cosmos 2208 Rocket 4.4 20:55:38 10° NNW 21:00:40 47° ENE 21:00:47 47° ENE
STARLINK-1246 3.8 20:56:53 10° WNW 21:00:32 68° NW 21:00:32 68° NW
STARLINK-1203 3.9 20:57:43 10° WNW 21:01:25 68° WNW 21:01:25 68° WNW
STARLINK-1224 4.0 21:01:51 10° WNW 21:05:18 60° WNW 21:05:18 60° WNW
Cosmos 1763 Rocket 3.3 21:05:04 10° NNW 21:10:17 87° WSW 21:10:29 83° S
STARLINK-1225 4.2 21:06:51 10° WNW 21:10:06 53° WNW 21:10:06 53° WNW
Cosmos 1833 Rocket 4.1 21:13:44 24° ENE 21:13:44 24° ENE 21:16:15 10° NE
Cosmos 489 Rocket 4.3 21:07:39 10° NNW 21:13:54 75° ENE 21:14:41 66° ESE
STARLINK-1230 4.5 21:11:50 10° WNW 21:14:53 47° WNW 21:14:53 47° WNW
BREEZE M DEB (TANK) 3.5 21:12:48 10° WSW 21:16:47 85° SSE 21:30:26 10° ENE
Cosmos 1814 Rocket 4.3 21:14:21 10° NNW 21:19:27 58° NE 21:19:27 58° NE
Cosmos 540 Rocket 3.7 21:14:35 10° NNW 21:19:20 57° NE 21:19:20 57° NE
Cosmos-2242 4.1 21:21:21 38° NNE 21:21:21 38° NNE 21:24:08 10° NNE
Cosmos 1821 Rocket 4.0 21:13:40 10° N 21:20:03 67° ENE 21:20:35 64° ESE
COSMOS 2406 3.2 21:20:59 66° ENE 21:20:59 66° ENE 21:26:05 10° NNE
Meteor 2-10 Rocket 3.6 21:23:20 67° NE 21:23:20 67° NE 21:28:09 10° NNE
Cosmos 1934 Rocket 4.4 21:18:45 10° N 21:24:38 46° ENE 21:24:38 46° ENE
Iridium 4 Rocket 4.0 21:20:51 10° NNW 21:24:45 41° W 21:24:45 41° W
USA 234 3.1 21:19:42 10° NE 21:26:17 90° ESE 21:32:51 10° SW
USA 32 4.1 21:26:05 10° N 21:31:15 73° W 21:31:15 73° W
Cosmos 1850 Rocket 4.4 21:39:35 55° W 21:40:06 58° WNW 21:45:15 10° NNE
CZ-4C R/B 3.2 21:33:28 10° NW 21:40:23 58° NE 21:41:59 49° E
Cosmos 2369 3.7 21:34:49 10° NNW 21:40:06 74° NNE 21:40:06 74° NNE
ASTEX 1 4.2 21:44:36 45° NNE 21:44:36 45° NNE 21:48:10 10° N
Cosmos 1697 Rocket 2.7 21:40:34 10° NNW 21:45:47 75° NNW 21:45:47 75° NNW
Cosmos 841 Rocket 3.8 21:42:20 10° NNW 21:46:53 64° NW 21:46:53 64° NW
Mayak 1.0 21:46:36 10° NNE 21:47:46 18° NNE 21:47:46 18° NNE
ATLAS CENTAUR R/B 3.5 21:51:16 10° NNW 21:52:56 24° NNW 21:52:56 24° NNW
SL-16 R/B 3.7 21:59:28 10° N 22:04:13 27° NE 22:04:13 27° NE
ERS-1 Rocket 4.4 22:07:19 31° W 22:07:19 31° W 22:11:26 10° NNW
Cosmos 2360 Rocket 4.3 22:03:52 10° N 22:07:17 16° NE 22:08:30 15° NE
Meteor 2-3 Rocket 4.1 22:06:13 10° NNW 22:11:01 62° NNW 22:11:01 62° NNW
Cosmos 2322 Rocket 3.7 22:07:58 10° N 22:12:34 26° NE 22:12:34 26° NE
Cosmos 1980 Rocket 2.7 22:09:54 10° NNW 22:14:19 56° NNW 22:14:19 56° NNW
Terra 3.4 22:21:20 30° WNW 22:21:20 30° WNW 22:24:26 10° NNW
Cosmos 2082 Rocket 3.2 22:45:47 43° N 22:45:47 43° N 22:49:36 10° NNE
Cosmos 1833 Rocket 3.8 22:55:22 39° NW 22:55:22 39° NW 23:00:19 10° NNE
Cosmos 2344 4.3 22:46:48 10° NW 22:56:27 81° SW 22:58:33 66° SSE
Cosmos 2219 Rocket 4.4 23:02:19 10° N 23:05:47 16° NE 23:07:19 15° ENE
USA 234 4.1 23:02:49 10° NE 23:08:59 46° NNW 23:15:08 10° W
Mayak 1.6 23:23:17 10° NNW 23:24:21 14° NW 23:24:21 14° NW
CZ-4C R/B 3.8 23:22:08 10° NW 23:27:10 39° W 23:27:10 39° W
SL-16 R/B 3.7 23:43:13 10° NNW 23:46:05 30° NW 23:46:05 30° NW
Cosmos 2360 Rocket 3.4 23:46:46 10° NNW 23:50:15 38° N 23:50:15 38° N
